EW9965 Weather Reports


time (UTC)temp
F
wind
direction
speed
knots
gust
knots
rain 1hr
in
rain 24hr
in
rain mn
in
humidity
%
barometer
mb
20260906130018 75 153 0.0 0.0 0.00 0.00 0.00 60 1011.0
20260906124518 75 205 0.0 0.0 0.00 0.00 0.00 61 1010.9
20260906123018 76 97 0.0 0.0 0.00 0.00 0.00 61 1010.9
20260906121517 75 97 0.0 0.0 0.00 0.00 0.00 60 1010.9
20260906120020 75 97 0.0 1.7 0.00 0.00 0.00 60 1011.1
20260906114522 75 340 0.0 0.0 0.00 0.00 0.00 59 1011.2
20260906113013 75 340 0.0 0.0 0.00 0.00 0.00 60 1011.2
20260906111511 75 340 0.0 3.5 0.00 0.00 0.00 60 1011.3
20260906110010 76 4 0.0 4.3 0.00 0.00 0.00 59 1011.4
20260906104506 77 63 0.0 0.0 0.00 0.00 0.00 56 1011.4
20260906103008 77 79 0.0 0.0 0.00 0.00 0.00 54 1011.5
20260906101503 77 79 0.0 0.9 0.00 0.00 0.00 50 1011.5
20260906100100 77 70 0.0 0.0 0.00 0.00 0.00 47 1011.5
20260906094608 78 70 0.0 0.0 0.00 0.00 0.00 46 1011.4
20260906093107 78 71 0.0 0.0 0.00 0.00 0.00 46 1011.5
20260906091556 78 86 0.0 0.0 0.00 0.00 0.00 44 1011.6
20260906090154 78 86 0.0 0.0 0.00 0.00 0.00 44 1011.7
20260906084559 78 86 0.0 0.0 0.00 0.00 0.00 42 1011.8
20260906083052 78 86 0.0 0.0 0.00 0.00 0.00 41 1011.9
20260906081550 78 86 0.0 0.0 0.00 0.00 0.00 41 1011.9
20260906080057 78 86 0.0 0.0 0.00 0.00 0.00 42 1011.9
20260906074552 79 70 0.0 0.0 0.00 0.00 0.00 43 1012.1
20260906073044 79 70 0.0 0.0 0.00 0.00 0.00 43 1012.1
20260906071540 79 82 0.0 0.0 0.00 0.00 0.00 42 1012.0
20260906070036 79 100 0.0 0.0 0.00 0.00 0.00 41 1012.1
20260906064536 79 139 0.0 0.0 0.00 0.00 0.00 42 1012.2
20260906063033 79 139 0.0 0.0 0.00 0.00 0.00 42 1012.0
20260906061540 79 139 0.0 1.7 0.00 0.00 0.00 41 1011.9
20260906060028 79 97 0.0 0.0 0.00 0.00 0.00 40 1011.8
20260906054527 79 97 0.0 0.0 0.00 0.00 0.00 40 1012.1
20260906053024 79 101 0.0 0.9 0.00 0.00 0.00 40 1012.2
20260906051525 79 72 0.0 0.0 0.00 0.00 0.00 39 1012.2
20260906050022 80 72 0.0 0.9 0.00 0.00 0.00 39 1012.3
20260906044521 80 193 0.0 0.0 0.00 0.00 0.00 37 1012.3
20260906043021 81 193 0.0 0.0 0.00 0.00 0.00 37 1012.4
20260906041533 81 193 0.0 0.9 0.00 0.00 0.00 35 1012.3
20260906040022 82 193 0.0 1.7 0.00 0.00 0.00 33 1012.2
20260906034520 82 184 0.0 1.7 0.00 0.00 0.00 33 1012.2
20260906033019 83 208 0.0 0.0 0.00 0.00 0.00 34 1012.1
20260906031521 83 195 0.0 1.7 0.00 0.00 0.00 34 1011.9
20260906030016 84 179 0.0 5.2 0.00 0.00 0.00 34 1011.8
20260906024516 85 195 0.0 4.3 0.00 0.00 0.00 36 1011.8
20260906023015 86 201 0.0 4.3 0.00 0.00 0.00 36 1011.5
20260906021515 87 182 1.7 4.3 0.00 0.00 0.00 34 1011.5
20260906020013 88 239 0.0 4.3 0.00 0.00 0.00 32 1011.5
20260906014528 89 178 0.0 5.2 0.00 0.00 0.00 31 1011.4
20260906013014 89 167 0.9 6.1 0.00 0.00 0.00 31 1011.4
20260906011510 91 248 0.9 5.2 0.00 0.00 0.00 32 1011.4
20260906010027 91 232 1.7 7.8 0.00 0.00 0.00 32 1011.4
20260906004507 92 181 0.9 7.0 0.00 0.00 0.00 34 1011.3
20260906003007 93 169 1.7 7.0 0.00 0.00 0.00 30 1011.2
20260906001506 95 213 1.7 7.0 0.00 0.00 0.00 32 1011.1
20260906000004 95 231 1.7 5.2 0.00 0.00 0.00 32 1011.0
20260905234503 96 190 2.6 8.7 0.00 0.00 0.00 30 1011.0
20260905233002 97 211 3.5 7.8 0.00 0.00 0.00 30 1011.1
20260905231502 97 193 1.7 7.8 0.00 0.00 0.00 30 1011.0
20260905230113 96 247 1.7 7.0 0.00 0.00 0.00 31 1011.0
20260905224556 97 204 1.7 8.7 0.00 0.00 0.00 30 1011.1
20260905223054 97 198 2.6 10.4 0.00 0.00 0.00 29 1011.1
20260905221554 97 174 3.5 8.7 0.00 0.00 0.00 29 1011.3
20260905220047 97 190 2.6 11.3 0.00 0.00 0.00 28 1011.3
20260905214541 97 156 4.3 7.8 0.00 0.00 0.00 26 1011.5
20260905213050 97 185 1.7 7.0 0.00 0.00 0.00 25 1011.6
20260905211543 96 226 3.5 9.6 0.00 0.00 0.00 26 1011.7
20260905210031 96 166 3.5 7.8 0.00 0.00 0.00 25 1012.0
20260905204532 96 285 0.9 7.0 0.00 0.00 0.00 23 1012.2
20260905203039 96 188 2.6 6.1 0.00 0.00 0.00 20 1012.3
20260905201548 96 139 2.6 7.0 0.00 0.00 0.00 21 1012.5
20260905200025 96 209 2.6 6.1 0.00 0.00 0.00 17 1012.6
20260905194524 94 258 0.9 6.1 0.00 0.00 0.00 16 1012.8
20260905193024 96 121 4.3 7.0 0.00 0.00 0.00 15 1012.9
20260905191526 94 206 2.6 6.1 0.00 0.00 0.00 18 1013.2
20260905190018 92 183 1.7 7.8 0.00 0.00 0.00 20 1013.4
20260905184516 92 256 2.6 5.2 0.00 0.00 0.00 19 1013.6
20260905183012 90 125 2.6 4.3 0.00 0.00 0.00 21 1013.6
20260905181510 89 153 1.7 4.3 0.00 0.00 0.00 22 1013.7
20260905180005 87 186 0.9 4.3 0.00 0.00 0.00 26 1013.7
20260905174504 86 139 0.9 5.2 0.00 0.00 0.00 27 1013.9
20260905173003 85 212 0.0 4.3 0.00 0.00 0.00 28 1013.6
20260905171603 85 288 1.7 5.2 0.00 0.00 0.00 27 1013.5
20260905170106 84 215 1.7 4.3 0.00 0.00 0.00 28 1013.6
20260905164603 82 213 0.0 1.7 0.00 0.00 0.00 28 1013.5
20260905163051 80 153 0.0 1.7 0.00 0.00 0.00 28 1013.5
20260905161548 78 149 0.0 1.7 0.00 0.00 0.00 34 1013.5
20260905160044 76 259 0.0 1.7 0.00 0.00 0.00 39 1013.5
20260905154541 73 180 0.0 3.5 0.00 0.00 0.00 42 1013.5
20260905153039 73 246 1.7 3.5 0.00 0.00 0.00 43 1013.4
20260905151537 70 29 0.0 0.0 0.00 0.00 0.00 45 1013.4
20260905150029 65 29 0.0 0.0 0.00 0.00 0.00 60 1013.5
20260905144532 63 29 0.0 0.0 0.00 0.00 0.00 63 1013.4
20260905143021 61 24 0.0 0.9 0.00 0.00 0.00 66 1013.4
20260905141516 59 24 0.0 0.0 0.00 0.00 0.00 69 1013.2
20260905140012 58 12 0.0 1.7 0.00 0.00 0.00 70 1013.2
20260905134508 58 52 0.0 0.0 0.00 0.00 0.00 71 1013.0
20260905133007 58 52 0.0 0.0 0.00 0.00 0.00 71 1012.8
20260905131505 58 53 0.0 0.0 0.00 0.00 0.00 71 1012.8